User: anonymous
Location: Gipe Farm
(40.9466°N, 95.5370°W)
Time: 15:29:51
(UTC-05:00)
Language:

Cosmos 2082 Rocket - Orbit

View from above orbital plane
View from above orbital plane
View from above satellite
View from above satellite

Ground track
Ground track

The orbit data is extracted from the following two-line orbital elements,

1 20625U 90046B   14208.49191166  .00000267  00000-0  16356-3 0  7724
2 20625 070.9984 204.7043 0016350 271.7971 250.3493 14.14528588248548
Epoch (UTC): 27 July 2014 11:48:21
Eccentricity: 0.0016350
inclination: 70.9984°
perigee height: 832 km
apogee height: 856 km
right ascension of ascending node: 204.7043°
argument of perigee: 271.7971°
revolutions per day: 14.14528588
mean anomaly at epoch: 250.3493°
orbit number at epoch: 24854

The dashed part of the orbit path shows where the satellite is in the earth's shadow,  

DLR